Weather reports worldwide

Advertisment
Lossiemouth, United Kingdom (3068): temperature & dewpoint: 16.09.2018 14:00:00 - 22.09.2018 14:00:00 (BST)Lossiemouth, United Kingdom (3068): wind speed & gusts: 16.09.2018 14:00:00 - 22.09.2018 14:00:00 (BST)Lossiemouth, United Kingdom (3068): wind direction: 16.09.2018 14:00:00 - 22.09.2018 14:00:00 (BST)Lossiemouth, United Kingdom (3068): reduced air pressure: 16.09.2018 14:00:00 - 22.09.2018 14:00:00 (BST)Lossiemouth, United Kingdom (3068): visibility: 16.09.2018 14:00:00 - 22.09.2018 14:00:00 (BST)Lossiemouth, United Kingdom (3068): precipitation: 16.09.2018 14:00:00 - 22.09.2018 14:00:00 (BST)
Date & Time tt [°C] td [°C] ff [km/h] ff [kn] fx [km/h] fx [kn] dd ppp [hPa] vv [km] rr [mm]
22.09.2018 14:00:00 9,9 7,7 31 17 54 29 WNW 1010,8 20 0,2
22.09.2018 13:00:00 11,6 5,5 37 20 55 30 WNW 1010,1 10 0,0
22.09.2018 12:00:00 11,0 6,5 39 21 52 28 WNW 1009,5 10 0,0
22.09.2018 11:00:00 11,0 8,0 31 17 50 27 W 1008,9 10 0,0
22.09.2018 10:00:00 9,3 7,3 31 17 46 25 W 1008,1 10 0,6
22.09.2018 09:00:00 8,9 6,9 37 20 54 29 W 1007,6 10 0,2
22.09.2018 08:00:00 8,8 5,5 37 20 - - W 1006,8 10 0,0
22.09.2018 07:00:00 9,4 4,0 39 21 - - W 1005,8 10 0,0
22.09.2018 06:00:00 8,5 4,0 41 22 - - WSW 1004,9 10 0,0
22.09.2018 05:00:00 8,1 4,2 29 16 - - WSW 1005,0 10 0,0
22.09.2018 04:00:00 8,1 4,5 31 17 54 29 WSW 1004,9 10 0,0
22.09.2018 03:00:00 8,5 4,8 34 18 50 27 WSW 1004,6 10 0,0
22.09.2018 02:00:00 7,9 4,3 26 14 - - WSW 1004,6 10 0,0
22.09.2018 01:00:00 7,7 4,1 29 16 - - WSW 1004,1 10 0,0
22.09.2018 00:00:00 7,3 3,9 28 15 46 25 WSW 1003,9 10 0,0
21.09.2018 23:00:00 8,0 4,8 29 16 - - WSW 1003,8 10 0,0
21.09.2018 22:00:00 8,6 4,8 24 13 - - WSW 1003,4 10 0,0
21.09.2018 21:00:00 8,1 4,3 24 13 - - WSW 1003,2 10 0,0
21.09.2018 20:00:00 8,6 4,5 24 13 - - WSW 1002,6 10 0,0
21.09.2018 19:00:00 10,2 5,4 29 16 52 28 WNW 1001,9 10 0,0
21.09.2018 18:00:00 11,1 3,7 37 20 52 28 WNW 1001,4 10 0,0
21.09.2018 17:00:00 11,7 5,0 34 18 48 26 W 1000,5 10 0,0
21.09.2018 16:00:00 11,5 3,9 34 18 52 28 WNW 999,6 10 0,0
21.09.2018 15:00:00 11,2 4,9 34 18 50 27 WNW 998,6 10 0,0
21.09.2018 14:00:00 11,3 5,6 37 20 54 29 NW 997,3 10 0,2
21.09.2018 13:00:00 10,7 5,6 31 17 50 27 NW 996,0 10 0,0
21.09.2018 12:00:00 10,2 5,7 37 20 50 27 NW 994,8 10 0,0
21.09.2018 11:00:00 9,6 6,7 34 18 54 29 NW 993,4 10 0,0
21.09.2018 10:00:00 9,4 7,0 42 23 59 32 NW 992,0 10 3,2
21.09.2018 09:00:00 8,5 7,3 44 24 59 32 WNW 990,7 5 2,2
21.09.2018 08:00:00 8,7 6,9 39 21 57 31 WNW 990,4 8 1,0
21.09.2018 07:00:00 8,7 6,9 26 14 - - W 990,2 10 1,0
21.09.2018 06:00:00 8,4 7,2 28 15 - - W 990,7 10 2,2
21.09.2018 05:00:00 8,6 6,5 29 16 - - WNW 991,0 10 0,6
21.09.2018 04:00:00 9,2 5,7 24 13 - - WNW 991,5 10 0,0
21.09.2018 03:00:00 8,4 6,2 11 6 - - W 992,5 10 0,0
21.09.2018 02:00:00 8,4 5,6 5 3 - - WSW 993,6 10 0,0
21.09.2018 01:00:00 8,6 5,9 4 2 - - S 994,4 10 0,0
21.09.2018 00:00:00 9,0 5,5 5 3 - - S 995,3 10 0,0
20.09.2018 23:00:00 8,2 5,4 5 3 - - SW 996,1 10 0,0
20.09.2018 22:00:00 9,5 4,8 4 2 - - SE 996,5 10 0,0
20.09.2018 21:00:00 8,8 4,5 9 5 - - WSW 997,7 10 0,0
20.09.2018 20:00:00 9,4 4,3 9 5 - - SW 997,7 10 0,0
20.09.2018 19:00:00 11,7 4,5 18 10 - - SW 998,3 10 0,0
20.09.2018 18:00:00 12,6 4,4 29 16 - - SW 999,0 10 0,0
20.09.2018 17:00:00 13,4 4,5 16 9 - - SW 999,4 10 0,0
20.09.2018 16:00:00 13,8 4,7 24 13 - - WSW 999,3 10 0,0
20.09.2018 15:00:00 15,0 4,5 28 15 57 31 W 999,2 10 0,0
20.09.2018 14:00:00 14,5 4,5 46 25 70 38 WSW 998,8 10 0,0
20.09.2018 13:00:00 14,2 4,3 48 26 76 41 WSW 998,3 10 0,0
20.09.2018 12:00:00 14,3 4,1 52 28 80 43 WSW 997,4 10 0,0
20.09.2018 11:00:00 13,1 4,9 48 26 78 42 SW 997,0 10 0,0
20.09.2018 10:00:00 12,5 4,8 44 24 63 34 SW 996,8 10 0,0
20.09.2018 09:00:00 11,2 4,3 42 23 63 34 SW 996,7 10 0,0
20.09.2018 08:00:00 10,2 3,7 42 23 63 34 SW 996,6 10 0,0
20.09.2018 07:00:00 9,7 3,7 34 18 57 31 SW 996,1 10 0,0
20.09.2018 06:00:00 10,1 3,6 42 23 67 36 SW 996,0 10 0,0
20.09.2018 05:00:00 9,7 4,4 35 19 61 33 SW 995,7 10 0,0
20.09.2018 04:00:00 9,5 4,3 46 25 63 34 SW 995,3 10 0,0
20.09.2018 03:00:00 8,8 4,0 35 19 52 28 SW 995,2 10 0,0
20.09.2018 02:00:00 8,5 4,0 35 19 59 32 SSW 994,9 10 0,0
20.09.2018 01:00:00 9,1 3,7 41 22 70 38 SW 994,9 10 0,0
20.09.2018 00:00:00 9,2 4,1 39 21 80 43 WSW 994,2 10 0,0
19.09.2018 23:00:00 9,7 4,2 34 18 55 30 WSW 994,0 10 0,0
19.09.2018 22:00:00 9,4 4,5 35 19 74 40 WSW 993,5 10 0,0
19.09.2018 21:00:00 9,4 4,5 48 26 68 37 SW 992,0 10 0,0
19.09.2018 20:00:00 9,6 4,5 46 25 67 36 SW 991,3 10 0,0
19.09.2018 19:00:00 10,5 4,7 44 24 68 37 WSW 990,1 10 0,0
19.09.2018 18:00:00 11,9 4,9 52 28 83 45 WSW 988,1 10 0,0
19.09.2018 17:00:00 12,1 6,6 57 31 96 52 WSW 986,0 10 0,0
19.09.2018 16:00:00 12,2 8,9 52 28 85 46 WSW 981,8 10 0,2
19.09.2018 15:00:00 15,2 8,3 54 29 78 42 SW 979,3 10 0,0
19.09.2018 14:00:00 15,3 9,4 35 19 93 50 SW 978,9 10 0,0
19.09.2018 13:00:00 15,8 12,3 41 22 61 33 S 978,2 50 1,4
19.09.2018 12:00:00 13,6 9,7 35 19 55 30 SSE 981,7 10 0,0
19.09.2018 11:00:00 11,1 7,2 21 11 46 25 SE 987,0 10 0,2
19.09.2018 10:00:00 11,4 5,6 18 10 - - SE 990,4 10 0,0
19.09.2018 09:00:00 11,8 5,2 18 10 - - SSW 992,5 10 0,0
19.09.2018 08:00:00 11,2 6,2 24 13 52 28 SW 993,3 10 0,0
19.09.2018 07:00:00 10,8 6,7 29 16 50 27 SW 994,4 10 0,0
19.09.2018 06:00:00 10,1 7,0 24 13 54 29 SW 994,5 10 0,0
19.09.2018 05:00:00 9,8 6,4 34 18 - - SW 994,2 10 0,0
19.09.2018 04:00:00 8,1 5,7 18 10 - - SSW 994,7 10 0,0
19.09.2018 03:00:00 8,3 5,6 22 12 85 46 SW 994,2 10 0,6
19.09.2018 02:00:00 10,9 7,4 22 12 - - S 993,3 10 0,0
19.09.2018 01:00:00 10,6 7,9 15 8 - - SSE 993,6 10 0,0
19.09.2018 00:00:00 10,4 8,2 13 7 - - S 994,3 10 0,2
18.09.2018 23:00:00 13,1 10,2 11 6 - - SSW 994,9 10 0,0
18.09.2018 22:00:00 13,7 10,6 11 6 - - S 994,6 10 0,0
18.09.2018 21:00:00 12,7 10,6 11 6 - - SSE 994,6 10 0,0
18.09.2018 20:00:00 13,6 9,9 21 11 - - WSW 994,4 10 0,0
18.09.2018 19:00:00 14,3 10,1 26 14 - - WSW 993,5 10 0,0
18.09.2018 18:00:00 15,9 11,4 31 17 55 30 WSW 992,8 10 0,0
18.09.2018 17:00:00 14,6 13,6 5 3 - - S 991,8 10 0,8
18.09.2018 16:00:00 13,6 13,3 9 5 - - NNE 991,7 10 0,2
18.09.2018 15:00:00 13,2 12,6 4 2 - - E 991,8 5 0,8
18.09.2018 14:00:00 13,0 12,6 8 4 - - NE 991,9 6 0,2
18.09.2018 13:00:00 12,9 12,7 11 6 - - NE 992,0 1,2 0,0
18.09.2018 12:00:00 12,7 12,5 15 8 - - NNE 992,6 1,2 0,0
18.09.2018 11:00:00 13,0 12,6 16 9 - - NNE 992,9 5 0,0
18.09.2018 10:00:00 12,9 12,5 21 11 - - NNE 993,2 4,0 0,4
18.09.2018 09:00:00 13,8 13,5 8 4 - - N 993,5 10 2,0
18.09.2018 08:00:00 14,0 13,5 9 5 - - NNW 993,6 3,5 2,6
18.09.2018 07:00:00 14,5 13,8 5 3 - - NW 993,7 5 3,6
18.09.2018 06:00:00 15,6 13,6 2 1 - - SSW 993,7 10 0,6
18.09.2018 05:00:00 16,5 13,2 24 13 - - WSW 993,3 10 0,0
18.09.2018 04:00:00 16,4 13,2 13 7 - - SSW 994,0 10 0,0
18.09.2018 03:00:00 17,3 13,4 21 11 - - SSW 993,8 10 0,0
18.09.2018 02:00:00 16,3 13,7 11 6 - - S 994,0 10 0,0
18.09.2018 01:00:00 16,2 13,9 16 9 - - SSW 993,6 10 0,4
18.09.2018 00:00:00 16,1 14,3 13 7 - - SSW 994,0 10 0,6
17.09.2018 23:00:00 16,1 14,3 15 8 - - SSW 993,9 10 1,6
17.09.2018 22:00:00 15,3 13,2 5 3 - - SSW 995,4 10 0,4
17.09.2018 21:00:00 15,2 12,2 15 8 - - SE 995,2 10 0,0
17.09.2018 20:00:00 14,1 11,8 13 7 - - SE 996,5 10 0,0
17.09.2018 19:00:00 14,3 11,2 22 12 - - SE 997,7 10 0,0
17.09.2018 18:00:00 14,4 10,8 21 11 - - SE 998,9 10 0,0
17.09.2018 17:00:00 13,5 11,0 18 10 - - SE 1000,5 10 0,0
17.09.2018 16:00:00 13,4 11,3 21 11 - - SSE 1002,4 10 0,4
17.09.2018 15:00:00 13,1 10,7 24 13 - - S 1003,7 10 0,4
17.09.2018 14:00:00 13,7 12,1 8 4 - - E 1004,5 10 0,0
17.09.2018 13:00:00 13,7 11,4 11 6 - - ESE 1005,3 10 0,4
17.09.2018 12:00:00 13,1 11,2 9 5 - - SSE 1006,0 10 0,2
17.09.2018 11:00:00 13,2 10,8 9 5 - - SSW 1007,0 10 0,4
17.09.2018 10:00:00 13,5 9,6 11 6 - - S 1007,2 10 0,0
17.09.2018 09:00:00 12,5 8,8 13 7 - - SSE 1007,0 10 0,0
17.09.2018 08:00:00 11,9 8,7 8 4 - - SE 1007,4 10 0,0
17.09.2018 07:00:00 11,6 8,2 9 5 - - SW 1007,4 10 0,0
17.09.2018 06:00:00 10,9 7,5 11 6 - - SSW 1007,5 10 0,0
17.09.2018 05:00:00 11,0 7,0 4 2 - - ESE 1007,7 10 0,0
17.09.2018 04:00:00 10,6 7,4 5 3 - - SSE 1007,9 10 0,0
17.09.2018 03:00:00 11,5 7,9 13 7 - - SW 1007,9 10 0,0
17.09.2018 02:00:00 10,8 7,0 13 7 - - S 1007,7 10 0,0
17.09.2018 01:00:00 10,7 6,7 13 7 - - S 1008,2 10 0,0
17.09.2018 00:00:00 10,3 6,1 18 10 - - SSW 1008,4 10 0,0
16.09.2018 23:00:00 10,0 5,4 16 9 - - SSW 1008,2 10 0,0
16.09.2018 22:00:00 10,2 6,0 18 10 - - SW 1008,8 10 0,0
16.09.2018 21:00:00 11,0 5,8 22 12 - - SW 1008,4 10 0,0
16.09.2018 20:00:00 10,4 6,5 15 8 - - SW 1008,3 10 0,0
16.09.2018 19:00:00 12,1 5,8 22 12 - - WSW 1007,7 10 0,0
16.09.2018 18:00:00 13,0 6,0 22 12 - - W 1006,9 10 0,0
16.09.2018 17:00:00 13,9 5,5 28 15 - - W 1006,6 10 0,0
16.09.2018 16:00:00 12,6 7,8 18 10 52 28 W 1005,9 10 0,0
16.09.2018 15:00:00 14,1 8,6 29 16 48 26 W 1005,7 10 0,2
16.09.2018 14:00:00 14,8 8,5 34 18 52 28 W 1004,6 10 0,0

tt = temperature
td = dewpoint
ff = wind speed
fx = gusts
dd = wind direction
ppp = reduced air pressure
vv = visibility
rr = precipitation

Next stations